Weather History for KHCD - April, 2014

Change the Weather History Date:

Wednesday, April 9, 2014

  Actual Average Record
Temperature  
Mean Temperature 51 °F -  
Max Temperature 71 °F 52 °F 81 °F (1977)
Min Temperature 32 °F 31 °F 8 °F (1997)
Degree Days  
Heating Degree Days 14    
Growing Degree Days 1 (Base 50)    
Moisture  
Dew Point 40 °F    
Average Humidity 66    
Maximum Humidity 96    
Minimum Humidity 47    
Precipitation  
Precipitation 0.00 in - - ()
Sea Level Pressure  
Sea Level Pressure 29.72 in    
Wind  
Wind Speed 7 mph (SSW)    
Max Wind Speed 16 mph    
Max Gust Speed 23 mph    
Visibility 10 miles    
Events      
Averages and records for this station are not official NWS values.
T = Trace of Precipitation, MM = Missing Value Source: NWS Daily Summary

Daily Weather History Graph

Daily Weather History Graph

Search for Another Location

Airport or City:

Trip Planner

Search our weather history database for the weather conditions in past years. The results will help you decide how hot, cold, wet, or windy it might be!

Date:

Astronomy

Apr. 09, 2014 Rise Set
Actual Time 6:43 AM CDT 7:55 PM CDT
Civil Twilight 6:13 AM CDT 8:25 PM CDT
Nautical Twilight 5:37 AM CDT 9:01 PM CDT
Astronomical Twilight 4:59 AM CDT 9:40 PM CDT
Moon 2:31 PM CDT (4/9) 3:46 AM CDT (4/9)
Length of Visible Light 14h 11m
Length of Day
13h 11m
Waxing Gibbous, 72% of the Moon is Illuminated
Apr 9
Waxing Gibbous
Apr 15
Full
Apr 22
Last Quarter
Apr 29
New
May 6
First Quarter

Hourly Weather History & Observations

Time (CDT) Temp. Windchill Dew Point Humidity Pressure Visibility Wind Dir Wind Speed Gust Speed Precip Events Conditions
12:13 AM 32.0 °F - 31.1 °F 96% 29.97 in 10.0 mi Calm Calm - N/A   Clear
12:33 AM 32.7 °F - 31.6 °F 96% 29.97 in 10.0 mi Calm Calm - N/A   Clear
12:53 AM 34.9 °F 32.0 °F 32.0 °F 89% 29.97 in 10.0 mi South 3.5 mph - N/A   Clear
1:13 AM 33.1 °F 30.0 °F 31.3 °F 93% 29.96 in 10.0 mi South 3.5 mph - N/A   Clear
1:33 AM 33.1 °F - 31.6 °F 94% 29.96 in 10.0 mi Calm Calm - N/A   Clear
1:53 AM 33.6 °F 30.6 °F 31.5 °F 92% 29.95 in 10.0 mi South 3.5 mph - N/A   Clear
2:13 AM 34.5 °F - 31.5 °F 89% 29.95 in 10.0 mi Calm Calm - N/A   Clear
2:33 AM 33.8 °F - 31.5 °F 91% 29.94 in 10.0 mi Calm Calm - N/A   Clear
2:52 AM 33.1 °F - 31.1 °F 92% 29.94 in 10.0 mi Calm Calm - N/A   Clear
3:13 AM 34.3 °F 28.4 °F 31.1 °F 88% 29.93 in 10.0 mi South 6.9 mph - N/A   Clear
3:33 AM 34.7 °F 29.6 °F 31.1 °F 87% 29.92 in 10.0 mi South 5.8 mph - N/A   Clear
3:53 AM 34.9 °F 30.8 °F 30.9 °F 85% 29.91 in 10.0 mi South 4.6 mph - N/A   Clear
4:13 AM 34.7 °F 29.6 °F 31.1 °F 87% 29.91 in 10.0 mi South 5.8 mph - N/A   Clear
4:33 AM 35.1 °F 31.0 °F 30.9 °F 85% 29.91 in 10.0 mi South 4.6 mph - N/A   Clear
4:53 AM 35.6 °F 29.2 °F 31.1 °F 84% 29.90 in 10.0 mi South 8.1 mph - N/A   Mostly Cloudy
5:13 AM 36.9 °F 30.7 °F 31.5 °F 81% 29.89 in 10.0 mi South 8.1 mph - N/A   Overcast
5:33 AM 36.7 °F 30.5 °F 31.8 °F 83% 29.89 in 10.0 mi South 8.1 mph - N/A   Overcast
5:53 AM 38.7 °F 32.4 °F 31.1 °F 74% 29.88 in 10.0 mi South 9.2 mph - N/A   Overcast
6:13 AM 38.3 °F 31.4 °F 31.1 °F 75% 29.86 in 10.0 mi South 10.4 mph - N/A   Overcast
6:33 AM 37.6 °F 31.0 °F 31.1 °F 77% 29.85 in 10.0 mi South 9.2 mph - N/A   Mostly Cloudy
6:53 AM 37.4 °F 30.8 °F 31.1 °F 78% 29.84 in 10.0 mi South 9.2 mph - N/A   Mostly Cloudy
7:13 AM 37.4 °F 31.4 °F 30.7 °F 77% 29.83 in 10.0 mi SSE 8.1 mph - N/A   Scattered Clouds
7:33 AM 38.3 °F 32.5 °F 30.9 °F 75% 29.82 in 10.0 mi SSE 8.1 mph - N/A   Clear
7:53 AM 39.7 °F 33.2 °F 31.1 °F 71% 29.81 in 10.0 mi South 10.4 mph 16.1 mph N/A   Mostly Cloudy
8:13 AM 40.3 °F 33.4 °F 31.1 °F 70% 29.80 in 10.0 mi South 11.5 mph - N/A   Mostly Cloudy
8:33 AM 41.2 °F 34.1 °F 31.8 °F 69% 29.79 in 10.0 mi South 12.7 mph 17.3 mph N/A   Scattered Clouds
8:53 AM 42.6 °F 35.6 °F 32.0 °F 66% 29.79 in 10.0 mi South 13.8 mph 17.3 mph N/A   Clear
9:13 AM 44.8 °F 38.0 °F 32.4 °F 62% 29.78 in 10.0 mi South 15.0 mph 19.6 mph N/A   Clear
9:33 AM 45.9 °F 40.0 °F 32.9 °F 61% 29.77 in 10.0 mi South 12.7 mph 20.7 mph N/A   Clear
9:53 AM 48.0 °F - 33.1 °F 56% 29.76 in 10.0 mi South 15.0 mph 23.0 mph N/A   Clear
10:13 AM 49.1 °F - 34.3 °F 57% 29.75 in 10.0 mi South 16.1 mph 21.9 mph N/A   Clear
10:53 AM 52.5 °F - 37.0 °F 56% 29.73 in 10.0 mi South 11.5 mph 18.4 mph N/A   Clear
11:13 AM 54.9 °F - 37.6 °F 52% 29.72 in 10.0 mi SSW 11.5 mph 19.6 mph N/A   Clear
11:32 AM 55.8 °F - 37.2 °F 50% 29.72 in 10.0 mi South 15.0 mph 20.7 mph N/A   Clear
11:53 AM 57.6 °F - 39.9 °F 52% 29.71 in 10.0 mi SSW 11.5 mph 18.4 mph N/A   Clear
12:13 PM 58.3 °F - 39.4 °F 49% 29.70 in 10.0 mi SSW 12.7 mph - N/A   Clear
12:33 PM 59.0 °F - 40.6 °F 51% 29.70 in 10.0 mi SSW 12.7 mph 18.4 mph N/A   Clear
12:53 PM 60.1 °F - 42.4 °F 52% 29.69 in 10.0 mi SSW 12.7 mph 18.4 mph N/A   Clear
1:13 PM 61.0 °F - 43.2 °F 52% 29.68 in 10.0 mi SSW 13.8 mph 20.7 mph N/A   Clear
1:33 PM - - - N/A% - - North - - N/A   Unknown
1:53 PM 63.3 °F - 44.6 °F 50% 29.65 in 10.0 mi South 12.7 mph 20.7 mph N/A   Clear
2:13 PM 64.4 °F - 45.1 °F 50% 29.64 in 10.0 mi South 12.7 mph 19.6 mph N/A   Clear
2:33 PM 65.5 °F - 46.8 °F 51% 29.63 in 10.0 mi SSW 11.5 mph 19.6 mph N/A   Clear
2:53 PM 66.2 °F - 47.7 °F 51% 29.62 in 10.0 mi SSW 15.0 mph 21.9 mph N/A   Clear
3:13 PM 66.6 °F - 47.5 °F 50% 29.62 in 10.0 mi South 16.1 mph 23.0 mph N/A   Clear
3:33 PM 67.8 °F - 48.7 °F 50% 29.60 in 10.0 mi SSW 10.4 mph 21.9 mph N/A   Clear
3:53 PM 68.9 °F - 49.1 °F 49% 29.60 in 10.0 mi SSW 12.7 mph 21.9 mph N/A   Clear
4:13 PM 69.3 °F - 49.5 °F 49% 29.59 in 10.0 mi SSW 13.8 mph 18.4 mph N/A   Clear
4:33 PM 70.2 °F - 49.1 °F 47% 29.58 in 10.0 mi SSW 12.7 mph 17.3 mph N/A   Clear
4:53 PM 70.7 °F - 50.0 °F 48% 29.57 in 10.0 mi SSW 12.7 mph 20.7 mph N/A   Clear
5:13 PM 70.3 °F - 50.0 °F 48% 29.56 in 10.0 mi South 12.7 mph 18.4 mph N/A   Clear
5:33 PM 68.9 °F - 50.7 °F 52% 29.56 in 10.0 mi South 8.1 mph 16.1 mph N/A   Clear
5:53 PM 70.2 °F - 51.6 °F 52% 29.55 in 10.0 mi SSW 9.2 mph 17.3 mph N/A   Clear
6:13 PM 70.7 °F - 52.2 °F 52% 29.55 in 10.0 mi South 9.2 mph - N/A   Clear
6:33 PM 70.0 °F - 52.3 °F 53% 29.55 in 10.0 mi South 9.2 mph - N/A   Clear
6:53 PM 68.9 °F - 52.7 °F 56% 29.53 in 10.0 mi South 6.9 mph - N/A   Clear
7:13 PM 66.4 °F - 51.8 °F 59% 29.53 in 10.0 mi South 9.2 mph - N/A   Clear
7:33 PM 63.9 °F - 50.9 °F 63% 29.52 in 10.0 mi South 8.1 mph - N/A   Clear
7:53 PM 61.9 °F - 50.9 °F 67% 29.52 in 10.0 mi South 8.1 mph - N/A   Clear
8:13 PM 60.6 °F - 50.0 °F 68% 29.51 in 10.0 mi South 8.1 mph - N/A   Clear
8:33 PM 60.1 °F - 49.1 °F 67% 29.51 in 10.0 mi South 9.2 mph - N/A   Clear
8:53 PM 60.6 °F - 48.4 °F 64% 29.51 in 10.0 mi South 9.2 mph - N/A   Clear
9:13 PM 59.2 °F - 47.8 °F 66% 29.51 in 10.0 mi SSW 8.1 mph - N/A   Scattered Clouds
9:33 PM 60.1 °F - 46.8 °F 61% 29.53 in 10.0 mi WSW 11.5 mph 16.1 mph N/A   Mostly Cloudy
9:53 PM 60.1 °F - 47.1 °F 62% 29.55 in 10.0 mi West 10.4 mph - N/A   Mostly Cloudy
10:13 PM 59.2 °F - 46.8 °F 63% 29.53 in 10.0 mi SW 6.9 mph - N/A   Mostly Cloudy
10:33 PM 59.5 °F - 46.0 °F 61% 29.52 in 10.0 mi SW 8.1 mph - N/A   Scattered Clouds
10:53 PM 58.5 °F - 47.1 °F 66% 29.54 in 10.0 mi West 10.4 mph - N/A   Scattered Clouds
11:13 PM 58.8 °F - 46.8 °F 64% 29.55 in 10.0 mi West 11.5 mph - N/A   Mostly Cloudy
11:33 PM 60.6 °F - 45.0 °F 56% 29.57 in 10.0 mi WNW 8.1 mph - N/A   Overcast
11:53 PM 59.4 °F - 45.1 °F 59% 29.59 in 10.0 mi WNW 11.5 mph 17.3 mph N/A   Overcast